Regional Weather Roundup
Issued by NWS

Home | Current Version | Previous Version | Graphics & Text | Print | Product List | Glossary On
Versions: 1 2 3 4 5 6 7 8 9 10 11 12 13 14 15 16 17 18 19 20 21 22 23 24 25 26 27 28 29 30 31 32 33 34 35 36 37 38 39 40 41 42 43 44 45 46 47 48 49 50
000
ASUS43 KMPX 261301
RWRMN
WEATHER ROUNDUP FOR MINNESOTA
NATIONAL WEATHER SERVICE TWIN CITIES/CHANHASSEN MN
800 AM CDT FRI MAY 26 2017


NOTE: "FAIR" INDICATES FEW OR NO CLOUDS BELOW 12,000 FEET WITH NO
SIGNIFICANT WEATHER AND/OR OBSTRUCTIONS TO VISIBILITY. N/A MEANS
CURRENT SKY AND/OR WEATHER CONDITIONS ARE NOT AVAILABLE.

MNZ060>063-068>070-261400-
   Twin Cities Metro

CITY           SKY/WX    TMP DP  RH WIND       PRES   REMARKS
TWIN CITIES    CLOUDY    62  52  69 SE9       29.71S
ST PAUL        CLOUDY    61  55  81 SE10      29.71S
CRYSTAL        CLOUDY    62  51  67 S7        29.69S
BLAINE         CLOUDY    64  55  72 S7        29.70S
LAKEVILLE      CLOUDY    61  54  77 SE6       29.71S
EDEN PRAIRIE   CLOUDY    64  53  67 S6        29.70R
SOUTH ST PAUL  CLOUDY    61  53  76 SE6       29.71F
LAKE ELMO      CLOUDY    61  54  77 SE6       29.72F
$$
MNZ001>005-007-008-013>017-022>024-027-028-261400-
   Northwest Minnesota

CITY           SKY/WX    TMP DP  RH WIND       PRES   REMARKS
BEMIDJI        SUNNY     58  52  81 SW7       29.65R
HALLOCK        SUNNY     57  48  72 W7        29.60R
ROSEAU         PTSUNNY   57  52  82 SW7       29.61S
WARROAD        CLOUDY    57  54  88 SW3       29.62R
CROOKSTON      SUNNY     55  48  76 W6        29.64S
FOSSTON        SUNNY     57  52  82 SW7       29.65R
DETROIT LAKES  MOSUNNY   55  52  88 W6        29.68R
MOORHEAD       SUNNY     55  46  71 W7        29.68R
PARK RAPIDS    SUNNY     58  50  75 S8        29.66R
MAHNOMEN       FAIR      57  50  78 W8        29.66R
$$
MNZ006-009>011-018-025>026-261400-
   North Central Minnesota

CITY           SKY/WX    TMP DP  RH WIND       PRES   REMARKS
BAUDETTE       SUNNY     59  52  77 S10       29.62S
FLAG ISLAND    PTSUNNY   55  52  88 S8        29.60R FOG
INTL FALLS     CLOUDY    56  52  86 SE6       29.66S
WASKISH        MOSUNNY   61  54  77 S7        29.64R
BIG FORK       CLOUDY    57  54  88 S6        29.67S
LONGVILLE      CLOUDY    57  54  88 SE5       29.67S
GRAND RAPIDS   CLOUDY    54  51  90 SE7       29.70S
CRANE LAKE     CLOUDY    54  52  94 SE3       29.70S
ORR            CLOUDY    54  48  82 S5        29.67R
COOK           CLOUDY    55  50  82 SE6       29.70R
WALKER         FAIR      57  52  82 S5        29.66R
$$
MNZ012-019>021-037-261400-
   Northeast Minnesota

CITY           SKY/WX    TMP DP  RH WIND       PRES   REMARKS
DULUTH         CLOUDY    50  47  89 E10       29.73S
ELY            CLOUDY    55  48  76 SE7       29.72S
HIBBING        CLOUDY    53  51  93 CALM      29.70R
EVELETH        CLOUDY    55  49  79 SE5       29.72R
DULUTH HARBOR  CLOUDY    45  43  93 NE9       29.75S
TWO HARBORS    CLOUDY    54  48  82 CALM      29.73R
SILVER BAY     CLOUDY    55  52  88 CALM      29.72F
G MARAIS ARPRT LGT RAIN  52  45  76 E3        29.79S
$$
MNZ029>031-032-039>041-046>048-054>057-064-261400-
   West Central Minnesota

CITY           SKY/WX    TMP DP  RH WIND       PRES   REMARKS
FERGUS FALLS   MOSUNNY   54  50  87 NW6       29.68R
WHEATON        MOSUNNY   57  46  67 W7        29.72R
MORRIS         CLOUDY    55  50  82 W12       29.69R
ALEXANDRIA     MOSUNNY   56  53  90 W6        29.70R
ELBOW LAKE     FAIR      53  49  87 NW9       29.70R
WADENA         MOSUNNY   55  52  88 SW5       29.67S
GLENWOOD       CLOUDY    55  52  88 SW7       29.70R
APPLETON       PTSUNNY   57  48  72 NW9       29.70S
BENSON         CLOUDY    57  52  82 NW5       29.72R
ORTONVILLE     PTSUNNY   57  48  72 W8        29.71S
MADISON        MOSUNNY   61  52  72 W10       29.71S
WILLMAR        FAIR      59  54  82 W8        29.72R
$$
MNZ033>034-036-042>043-049>051-058-059-261400-
   Central Minnesota

CITY           SKY/WX    TMP DP  RH WIND       PRES   REMARKS
ST CLOUD       CLOUDY    61  55  81 S7        29.69R
SAUK CENTRE    FAIR      57  53  86 SW3       29.70R
PAYNESVILLE    MOSUNNY   58  52  78 S5        29.69S
AITKIN         MOSUNNY   57  54  88 SE7       29.67S
PINE RIVER     CLOUDY    57  54  88 SE3       29.71R
BRAINERD       MOSUNNY   59  53  80 S6        29.68R
STAPLES        MOSUNNY   55  52  88 SW6       29.68R
LONG PRAIRIE   FAIR      55  52  88 S6        29.70R
LITTLE FALLS   CLOUDY    59  52  77 S5        29.69R
LITCHFIELD     CLOUDY    61  55  82 CALM      29.70S
BUFFALO        CLOUDY    62  52  70 S5        29.71R
MAPLE LAKE     CLOUDY    62  55  77 S6        29.71R
HUTCHINSON     SUNNY     61  55  81 SW5       29.71R
$$
MNZ037-044-045-052-053-261400-
   East Central Minnesota

CITY           SKY/WX    TMP DP  RH WIND       PRES   REMARKS
PRINCETON      CLOUDY    63  55  77 S6        29.70S
MORA           CLOUDY    57  52  82 S3        29.72R
CAMBRIDGE      CLOUDY    63  52  67 S7        29.69R
RUSH CITY      CLOUDY    60  55  82 S7        29.71R
MOOSE LAKE     CLOUDY    52  48  87 NE3       29.70R
HINCKLEY       CLOUDY    61  55  82 S5        29.71S
CLOQUET        CLOUDY    50  46  87 E3        29.72S
MCGREGOR       CLOUDY    54  52  94 SE7       29.71R
$$
MNZ071>073-080-081-089-090-097-098-261400-
   Southwest Minnesota

CITY           SKY/WX    TMP DP  RH WIND       PRES   REMARKS
MONTEVIDEO     MOSUNNY   57  52  82 NW7       29.71R
CANBY          MOSUNNY   59  50  72 NW9       29.74R
MARSHALL       CLOUDY    57  52  83 NW10      29.73R
REDWOOD FALLS  PTSUNNY   59  52  77 W8        29.70R
OLIVIA         CLOUDY    57  52  82 SW6       29.69S
PIPESTONE      CLOUDY    55  46  71 N13       29.74R
WINDOM         CLOUDY    59  54  82 SW6       29.72R
WORTHINGTON    MOSUNNY   58  54  86 W9        29.73R
JACKSON        MOSUNNY   59  54  82 CALM      29.73R
TRACY          MOSUNNY   60  54  79 W7        29.72S
SLAYTON        CLOUDY    57  52  84 W9        29.73R
$$
MNZ065>067-074>077-082>085-091>093-261400-
   South Central Minnesota

CITY           SKY/WX    TMP DP  RH WIND       PRES   REMARKS
MANKATO          N/A     61  53  75 S7        29.72R
NEW ULM        MOSUNNY   61  54  77 SW6       29.71R
ST JAMES       MOSUNNY   61  54  77 S6        29.72R
FAIRMONT       PTSUNNY   59  53  80 S7        29.73R
GLENCOE        MOSUNNY   63  57  81 S6        29.69S
FARIBAULT      CLOUDY    63  54  72 SE5       29.72S
OWATONNA       CLOUDY    63  52  67 SE10      29.72S
WASECA         CLOUDY    59  52  77 SE6       29.73R
ALBERT LEA     CLOUDY    61  54  77 SE6       29.73R
$$
MNZ078>079-086>088-094>096-261400-
   Southeast Minnesota

CITY           SKY/WX    TMP DP  RH WIND       PRES   REMARKS
ROCHESTER      CLOUDY    59  55  87 S10       29.77R
RED WING       MOSUNNY   63  54  72 SE8       29.72F
STANTON        CLOUDY    64  53  67 S7        29.71S
DODGE CENTER   CLOUDY    59  54  82 SE9       29.74R
WINONA         SUNNY     61  55  82 SE6       29.76F
AUSTIN         CLOUDY    61  52  72 SE5       29.74R
PRESTON        CLOUDY    59  53  79 SE3       29.77R
$$
ABBREVIATIONS USED IN REMARKS
   TC - TEMPERATURES IN CELSIUS
  WCI - WIND CHILL INDEX
   HX - HEAT INDEX
  VSB - VISIBILITY
$$



USA.gov is the U.S. government's official web portal to all federal, state and local government web resources and services.